Back to catalog

STARLINK-3069

AliveCommunicationsVLEO
NORAD 49176·PAYLOAD·🇺🇸 United States

Launched Sep 14, 2021 from Vandenberg Space Force Base

Loading…

Next Passes (next 24 hours)

TLE

FreshSource: CelesTrak SupGP

Epoch: Sep 14, 2026, 13:57 UTC

1 49176C 21082AY  26257.58173611  .00531720  00000+0  50913-3 0  2579
2 49176  69.9905 118.1548 0004992 254.2690 290.4747 16.11247714    15

Track STARLINK-3069 in real time with AllMySat

Download on the App Store